Home > Weather > Kamp-Lintfort > Past weeks

Flag for Germany Weather for the Past 2 Weeks in Kamp-Lintfort, North Rhine-Westphalia, Germany

Now
52 °F

Partly sunny.


Feels Like: 46 °F
Forecast: 44 / 50 °F
Wind: 17 mph from Southwest

Location: Duesseldorf

Current Time: Feb 6, 2016 at 1:02:56 PM

Latest Report: Feb 6, 2016 at 12:20 PM


Visibility: N/A

Pressure: 29.86 "Hg

Humidity: 72%

Dew point: 43 °F

Location of Kamp-LintfortLocation

Historic Weather in Kamp-Lintfort — Graph

°F

Kamp-Lintfort Temperature Yesterday

Maximum temperature yesterday: 50 °F (at 1:50 PM)
Minimum temperature yesterday: 39 °F (at 12:20 AM)
Average temperature yesterday: 45 °F

High & Low Weather Summary for the Past Weeks

 TemperatureHumidityPressure
High57 °F (Jan 25, 1:50 PM)100% (Jan 22, 11:50 PM)30.54 "Hg (Jan 22, 11:50 PM)
Low32 °F (Jan 22, 11:20 AM)57% (Jan 28, 2:50 PM)29.71 "Hg (Jan 30, 1:20 PM)
Average46 °F85%30.12 "Hg
* Reported Jan 22 11:20 AM — Feb 6 11:50 AM, Kamp-Lintfort, Weather by CustomWeather, © 2016

Note: Actual official high and low records may vary slightly from our data, if they occured in-between our weather recording intervals... More about our weather records

Advertising

Kamp-Lintfort Weather History for the Previous 24 Hours

 ConditionsComfort  
Time TempWeatherWind HumidityBarometerVisibility
11:50 AM
Sat, Feb 6
50 °FPartly sunny.15 mph76%29.86 "HgN/A
11:20 AM48 °FPartly sunny.12 mph82%29.89 "HgN/A
10:50 AM48 °FPartly sunny.15 mph82%29.89 "HgN/A
10:20 AM48 °FPartly sunny.15 mph82%29.89 "HgN/A
9:50 AM48 °FScattered clouds.15 mph76%29.89 "HgN/A
9:20 AM46 °FScattered clouds.14 mph82%29.89 "HgN/A
8:50 AM46 °FScattered clouds.14 mph82%29.92 "HgN/A
8:20 AM46 °FPartly sunny.14 mph82%29.89 "HgN/A
7:50 AM46 °FPassing clouds.14 mph87%29.92 "HgN/A
7:20 AM46 °FPartly cloudy.12 mph87%29.92 "HgN/A
6:50 AM46 °FClear.16 mph82%29.92 "Hg10 mi
6:20 AM46 °FClear.16 mph87%29.92 "Hg10 mi
5:50 AM46 °FClear.15 mph87%29.92 "Hg10 mi
5:20 AM46 °FClear.15 mph87%29.92 "Hg10 mi
4:50 AM48 °FClear.14 mph82%29.95 "Hg10 mi
4:20 AM48 °FClear.13 mph82%29.95 "Hg10 mi
3:50 AM48 °FClear.14 mph82%29.98 "Hg10 mi
3:20 AM48 °FPassing clouds.12 mph82%29.98 "HgN/A
2:50 AM48 °FPassing clouds.10 mph87%30.01 "HgN/A
2:20 AM50 °FPartly cloudy.13 mph82%30.01 "HgN/A
1:20 AM50 °FPassing clouds.14 mph82%30.04 "HgN/A
12:50 AM50 °FPassing clouds.13 mph82%30.04 "HgN/A
12:20 AM50 °FPartly cloudy.14 mph82%30.07 "HgN/A
11:20 PM
Fri, Feb 5
50 °FPartly cloudy.14 mph82%30.07 "HgN/A
10:50 PM50 °FPassing clouds.12 mph82%30.07 "HgN/A
10:20 PM50 °FPartly cloudy.9 mph82%30.09 "HgN/A
9:50 PM50 °FPassing clouds.13 mph82%30.09 "HgN/A
9:20 PM50 °FPassing clouds.9 mph88%30.09 "HgN/A
8:50 PM50 °FOvercast.10 mph88%30.12 "HgN/A
8:20 PM50 °FPartly cloudy.12 mph88%30.12 "HgN/A
7:50 PM50 °FPassing clouds.13 mph88%30.12 "HgN/A
7:20 PM50 °FPassing clouds.10 mph88%30.12 "HgN/A
6:50 PM50 °FPassing clouds.9 mph88%30.12 "HgN/A
6:20 PM50 °FPartly cloudy.9 mph94%30.15 "HgN/A
5:50 PM48 °FPartly cloudy.8 mph100%30.15 "HgN/A
5:20 PM50 °FBroken clouds.9 mph94%30.15 "HgN/A
4:50 PM50 °FBroken clouds.10 mph88%30.15 "HgN/A
4:20 PM50 °FPartly sunny.12 mph88%30.15 "HgN/A
3:50 PM50 °FPartly sunny.13 mph88%30.18 "HgN/A
3:20 PM50 °FBroken clouds.12 mph94%30.18 "HgN/A
2:50 PM48 °FDrizzle. Broken clouds.12 mph100%30.18 "Hg4 mi
2:20 PM50 °FDrizzle. Broken clouds.10 mph94%30.18 "Hg4 mi
1:50 PM50 °FBroken clouds.12 mph94%30.18 "Hg5 mi
1:20 PM48 °FDrizzle. Partly sunny.14 mph100%30.21 "Hg4 mi
Weather by CustomWeather, © 2016

See weather overviewHow to use our weather pages